GW2134 Weather Reports


Display with metric or nautical units.
time (UTC)temp
F
wind
direction
speed
MPH
gust
MPH
rain 1hr
in
rain 24hr
in
rain mn
in
humidity
%
barometer
mb
20260504044601 54 0 1.0 5.0 0.00 0.00 0.00 48 1020.3
20260504043057 54 12 2.0 5.0 0.00 0.00 0.00 46 1020.3
20260504041553 54 0 0.0 3.0 0.00 0.00 0.00 44 1020.1
20260504040105 54 323 2.0 3.0 0.00 0.00 0.00 44 1019.9
20260504034610 54 355 1.0 4.0 0.00 0.00 0.00 44 1020.0
20260504033048 54 355 2.0 4.0 0.00 0.00 0.00 42 1019.9
20260504031552 54 332 2.0 4.0 0.00 0.00 0.00 42 1020.0
20260504030117 54 333 0.0 4.0 0.00 0.00 0.00 42 1020.0
20260504024555 54 320 2.0 4.0 0.00 0.00 0.00 41 1020.1
20260504023049 54 348 1.0 3.0 0.00 0.00 0.00 42 1020.3
20260504021554 54 355 0.0 3.0 0.00 0.00 0.00 44 1020.4
20260504020100 54 331 1.0 3.0 0.00 0.00 0.00 43 1020.5
20260504014601 54 360 1.0 3.0 0.00 0.00 0.00 45 1020.5
20260504013055 54 327 1.0 4.0 0.00 0.00 0.00 43 1020.6
20260504011550 54 318 1.0 4.0 0.00 0.00 0.00 45 1020.7
20260504010050 55 360 2.0 4.0 0.00 0.00 0.00 43 1020.7
20260504004551 55 321 2.0 4.0 0.00 0.00 0.00 42 1020.8
20260504003054 55 333 3.0 5.0 0.00 0.00 0.00 42 1020.8
20260504001604 54 23 0.0 3.0 0.00 0.00 0.00 43 1020.9
20260504000059 55 0 0.0 4.0 0.00 0.00 0.00 43 1021.0
20260503234550 55 30 0.0 5.0 0.00 0.00 0.00 44 1021.1
20260503233049 55 333 4.0 6.0 0.00 0.00 0.00 44 1021.2
20260503231553 56 315 3.0 5.0 0.00 0.00 0.00 44 1021.4
20260503230052 56 333 3.0 5.0 0.00 0.00 0.00 44 1021.5
20260503224554 56 338 1.0 4.0 0.00 0.00 0.00 44 1021.5
20260503223051 56 329 2.0 4.0 0.00 0.00 0.00 45 1021.5
20260503221602 56 5 2.0 4.0 0.00 0.00 0.00 45 1021.5
20260503220053 57 0 0.0 3.0 0.00 0.00 0.00 47 1021.4
20260503214601 57 0 0.0 3.0 0.00 0.00 0.00 48 1021.4
20260503213058 57 355 2.0 5.0 0.00 0.00 0.00 47 1021.3
20260503211557 57 323 2.0 4.0 0.00 0.00 0.00 49 1021.2
20260503210054 57 322 2.0 5.0 0.00 0.00 0.00 52 1021.2
20260503204557 58 338 2.0 5.0 0.00 0.00 0.00 53 1021.2
20260503203054 58 17 2.0 6.0 0.00 0.00 0.00 54 1021.0
20260503201552 58 342 2.0 4.0 0.00 0.00 0.00 54 1021.0
20260503200052 59 342 2.0 5.0 0.00 0.00 0.00 54 1020.9
20260503194553 59 336 2.0 5.0 0.00 0.00 0.00 54 1021.0
20260503193107 59 309 3.0 5.0 0.00 0.00 0.00 54 1020.8
20260503191553 59 340 2.0 4.0 0.00 0.00 0.00 54 1020.6
20260503190107 59 311 2.0 5.0 0.00 0.00 0.00 54 1020.5
20260503184552 60 336 3.0 5.0 0.00 0.00 0.00 50 1020.5
20260503183102 61 360 4.0 6.0 0.00 0.00 0.00 50 1020.4
20260503181552 62 343 3.0 6.0 0.00 0.00 0.00 49 1020.4
20260503180058 62 329 3.0 6.0 0.00 0.00 0.00 49 1020.2
20260503174553 63 326 3.0 5.0 0.00 0.00 0.00 49 1020.2
20260503173110 64 355 2.0 4.0 0.00 0.00 0.00 48 1020.2
20260503171555 65 347 2.0 4.0 0.00 0.00 0.00 46 1020.3
20260503140104 71 94 4.0 12.0 0.00 0.00 0.00 40 1021.2
20260503081601 67 0 1.0 5.0 0.00 0.00 0.00 37 1022.6
20260503071605 62 0 0.0 3.0 0.00 0.00 0.00 51 1022.7